This demonstration page uses our WeatherBlox Daily Observations layout. Learn more.

Left ArrowRight Arrow

38.20091, -84.87328

Hourly Observations for June 15, 2021

Temp ( °F °C ) Dew Point ( °F °C ) Humidity (%) Winds ( mph kmh ) Pressure ( in mb ) Visibility ( mi km ) Precip ( " mm )
12:53 am 00:53 Clear 71 21.7 52 11.1 51 51 NNW 7 11 29.93 1014 10 16 0.00 0.00
1:53 am 01:53 Clear 68 20 52 11.1 57 57 NW 3 6 29.94 1014 10 16 0.00 0.00
2:53 am 02:53 Clear 66 18.9 51 10.6 59 59 NW 3 6 29.94 1014 10 16 0.00 0.00
3:53 am 03:53 Clear 64 17.8 52 11.1 65 65 NW 6 9 29.95 1014 10 16 0.00 0.00
4:53 am 04:53 Clear 63 17.2 52 11.1 68 68 NW 5 7 29.96 1015 10 16 0.00 0.00
5:53 am 05:53 Clear 60 15.6 53 11.7 78 78 Calm 29.96 1015 10 16 0.00 0.00
6:53 am 06:53 Sunny 60 15.6 53 11.7 78 78 N 5 7 29.98 1015 10 16 0.00 0.00
7:53 am 07:53 Sunny 65 18.3 54 12.2 68 68 NNW 5 7 29.98 1015 10 16 0.00 0.00
8:53 am 08:53 Sunny 69 20.6 54 12.2 59 59 NNW 6 9 30.00 1016 10 16 0.00 0.00
9:53 am 09:53 Sunny 72 22.2 55 12.8 55 55 N 7 11 30.01 1016 10 16 0.00 0.00
10:53 am 10:53 Sunny 75 23.9 57 13.9 54 54 NE 7 11 30.01 1016 10 16 0.00 0.00
11:53 am 11:53 Mostly Sunny 78 25.6 56 13.3 47 47 NNE 9 15 30.01 1016 10 16 0.00 0.00
12:53 pm 12:53 Sunny 80 26.7 55 12.8 42 42 NNE 8 13 30.01 1016 10 16 0.00 0.00
1:53 pm 13:53 Partly Cloudy 80 26.7 53 11.7 39 39 NNW 8 13 30.01 1016 10 16 0.00 0.00
2:53 pm 14:53 Partly Cloudy 81 27.2 54 12.2 39 39 N 8 13 30.00 1016 10 16 0.00 0.00
3:53 pm 15:53 Partly Cloudy 81 27.2 53 11.7 38 38 NNE 6 9 29.99 1016 10 16 0.00 0.00
4:53 pm 16:53 Partly Cloudy 82 27.8 53 11.7 37 37 NW 10 17 29.98 1015 10 16 0.00 0.00
6:53 pm 18:53 Sunny 81 27.2 53 11.7 38 38 NW 6 9 29.98 1015 10 16 0.00 0.00
7:53 pm 19:53 Partly Cloudy 79 26.1 53 11.7 41 41 NNW 7 11 29.98 1015 10 16 0.00 0.00
8:53 pm 20:53 Sunny 73 22.8 57 13.9 57 57 Calm 29.98 1015 10 16 0.00 0.00
9:53 pm 21:53 Clear 67 19.4 57 13.9 71 71 Calm 29.98 1015 10 16 0.00 0.00
10:53 pm 22:53 Clear 63 17.2 57 13.9 81 81 Calm 29.99 1016 10 16 0.00 0.00
11:53 pm 23:53 Clear 63 17.2 57 13.9 81 81 NNW 3 6 29.98 1015 10 16 0.00 0.00

Powered by AerisWeather